User: anonymous
Location: Oshawa
(43.9000°N, 78.8670°W)
Time: 16:01:22
(UTC-04:00)
Language:

PAYLOAD A - Orbit

View from above orbital plane
View from above orbital plane
View from above satellite
View from above satellite

Ground track
Ground track

The orbit data is extracted from the following two-line orbital elements,

1 27840U 03031A   14204.51473638 -.00000024  00000-0  57157-5 0  5966
2 27840 098.2343 231.6422 0099595 073.3303 056.6026 14.38713945580933
Epoch (UTC): 23 July 2014 12:21:13
Eccentricity: 0.0099595
inclination: 98.2343°
perigee height: 691 km
apogee height: 834 km
right ascension of ascending node: 231.6422°
argument of perigee: 73.3303°
revolutions per day: 14.38713945
mean anomaly at epoch: 56.6026°
orbit number at epoch: 58093

The dashed part of the orbit path shows where the satellite is in the earth's shadow,  

DLR